Location: Unspecified
(48.8582°N, 2.2947°E)
Time: 19:23:03
(UTC+02:00)

Daily predictions for brighter satellites

Satellite Brightness Start Highest point End
(mag) Time Altitude Azimuth Time Altitude Azimuth Time Altitude Azimuth
ATLAS 2AS CENTAUR R/B 3.1 21:13:01 10° NW 21:21:06 87° NE 21:28:34 10° SE
SJ-11-01 4.4 21:21:22 10° SSE 21:25:57 59° ENE 21:30:33 10° N
BREEZE-M DEB (TANK) 4.5 21:22:24 10° SW 21:27:17 55° SE 21:46:51 10° ENE
Cosmos 1892 2.8 21:23:35 10° N 21:27:31 90° ESE 21:31:24 10° S
Cosmos 1633 Rocket 3.1 21:29:08 10° N 21:33:31 88° WSW 21:37:51 10° S
YAOGAN 6 2.8 21:33:53 10° S 21:37:29 75° WSW 21:41:10 10° NNW
Thor Agena Rocket 3.6 21:32:43 10° NNE 21:37:58 79° ESE 21:43:16 10° SSW
USA 186 2.0 21:37:03 10° S 21:39:14 46° W 21:41:30 10° NNW
Genesis I 3.5 21:36:41 10° NW 21:40:46 71° SW 21:44:49 10° SSE
Cosmos 2154 Rocket 4.1 21:39:43 10° S 21:45:59 84° W 21:52:15 10° N
Lacrosse 5 3.3 21:42:48 10° WNW 21:47:23 33° N 21:51:59 10° ENE
NOSS 2-1 (E) 3.2 21:43:57 10° SW 21:47:38 86° SE 21:52:00 10° NE
Cosmos 1515 Rocket 3.9 21:44:14 10° SSE 21:48:31 48° E 21:52:50 10° NNE
NOSS 3-4 (A) 4.1 21:44:42 10° NW 21:51:28 58° NE 21:58:04 13° ESE
NOSS 3-4 (C) 4.1 21:44:48 10° NW 21:51:34 58° NE 21:58:10 13° ESE
Cosmos 2228 Rocket 3.2 21:47:56 10° S 21:52:11 51° E 21:56:28 10° NNE
Cosmos 1727 Rocket 4.5 21:47:58 10° N 21:53:50 42° ENE 21:59:11 12° SE
SPOT 5 4.3 21:51:38 11° ESE 21:54:30 19° ENE 21:57:39 10° NNE
Spot 2 Rocket 3.6 21:50:25 10° SSE 21:55:32 84° WSW 22:00:40 10° NNW
Cosmos 1340 4.0 21:53:18 10° SSW 21:56:57 44° WNW 22:00:37 10° N
Cosmos 405 4.0 21:56:34 10° N 21:59:42 29° ENE 22:01:39 18° ESE
SL-16 R/B 3.4 21:56:34 10° SSE 22:00:38 21° E 22:04:46 10° NE
NOSS 3-3 (A) 4.0 21:55:36 10° SSW 22:01:42 76° SE 22:08:28 10° NE
NOSS 3-3 (C) 4.0 21:55:43 10° SSW 22:01:47 76° SE 22:08:34 10° NE
Cosmos 1943 Rocket 4.3 22:00:58 10° N 22:03:40 14° NNE 22:06:22 10° ENE
USA 245 4.2 22:03:53 14° ENE 22:04:11 14° ENE 22:05:36 10° NNE
Meteor 2-3 Rocket 4.2 21:59:10 10° NNW 22:04:42 63° W 22:10:15 10° S
USA 267 4.4 22:01:18 10° E 22:05:28 18° ESE 22:09:37 10° SSE
Cosmos 1825 2.1 22:02:58 10° N 22:06:47 76° ENE 22:10:14 12° SSE
ARGOS 3.3 22:02:15 13° SE 22:06:57 56° ENE 22:12:12 10° N
SL-8 R/B 4.4 22:03:05 10° SSW 22:07:21 32° SSE 22:11:23 11° E
Cosmos 1328 Rocket 3.7 22:03:10 10° SSW 22:07:35 79° W 22:12:03 10° N
Cosmos 2341 Rocket 4.1 22:02:37 10° S 22:09:00 83° W 22:15:22 10° N
MetOp-B 4.4 22:05:43 14° SE 22:10:06 53° ENE 22:15:19 10° N
ATLAS CENTAUR R/B 1.0 22:08:52 10° SSW 22:12:32 73° SE 22:16:26 10° NE
NOSS 0 Rocket 3.9 22:07:18 10° SSW 22:13:25 71° ESE 22:19:37 10° NNE
Cosmos 2218 Rocket 4.1 22:07:52 10° S 22:14:07 64° E 22:20:28 10° NNE
Resurs 01 Rocket 2.9 22:12:03 10° SSW 22:16:14 40° W 22:20:26 10° NNW
Cosmos 1470 Rocket 4.1 22:12:04 10° NNW 22:16:24 61° W 22:20:45 10° S
BREEZE-M DEB (TANK) 4.0 22:14:58 10° W 22:18:14 22° SW 22:19:37 15° S
Cosmos 2344 4.5 22:16:13 10° SSE 22:22:09 25° ESE 22:28:28 10° ENE
Meteor 2-10 Rocket 3.9 22:18:13 10° S 22:23:45 53° E 22:29:25 10° NNE
Cosmos 2366 rocket 4.0 22:19:45 10° S 22:25:55 70° E 22:32:12 10° NNE
Cosmos 1980 3.6 22:21:00 10° SSW 22:26:41 79° ESE 22:32:23 10° NNE
USA 81 4.2 22:21:29 10° N 22:26:42 57° E 22:30:16 20° SSE
SL-08 RB Rocket 3.7 22:24:05 21° SSE 22:26:58 61° ENE 22:31:24 10° N
Cosmos 2297 3.8 22:22:13 10° NNW 22:27:53 69° ENE 22:31:34 22° SE
SPOT 1/Viking Rocket 4.2 22:27:07 22° ESE 22:29:59 40° ENE 22:34:50 10° N
Cosmos 407 Rocket 3.4 22:25:12 10° NNW 22:30:22 76° ENE 22:33:36 23° SSE
BREEZE-M DEB (TANK) 2.3 22:25:48 10° W 22:32:14 80° N 22:33:43 25° E
ERS-1 Rocket 3.0 22:30:09 22° SSE 22:33:25 66° ENE 22:38:25 10° N
Cosmos 2369 Rocket 3.8 22:30:06 10° N 22:34:41 24° NE 22:38:09 14° E
SL-8 Rocket 4.1 22:28:52 10° SSW 22:35:11 80° W 22:41:31 10° N
Cosmos 2333 Rocket 2.8 22:31:31 10° SW 22:37:07 61° WNW 22:42:44 10° NNE
Cosmos 1869 3.3 22:33:24 10° S 22:37:25 89° WNW 22:41:29 10° N
H-2A R/B 1.9 22:34:41 21° SSE 22:38:04 78° ENE 22:43:02 10° NNW
Cosmos 1339 Rocket 4.4 22:32:25 10° N 22:38:32 87° W 22:43:45 15° S
USA 234 3.9 22:36:20 11° E 22:42:23 52° NNE 22:48:42 10° WNW
CZ-4C R/B 4.0 22:44:19 14° E 22:44:19 14° E 22:45:46 10° ENE
COSMOS 2428 4.3 22:37:15 10° WSW 22:42:34 38° NW 22:47:54 10° NNE
Cosmos 1371 Rocket 3.9 22:37:54 10° SSW 22:43:13 76° ESE 22:48:36 10° NNE
BREEZE M DEB (TANK) 4.2 22:28:52 10° WSW 22:48:26 81° SSE 22:53:13 11° ENE
Cosmos 676 Rocket 4.0 22:44:55 10° NNW 22:50:13 72° ENE 22:52:41 31° SE
MetOp-A 4.4 22:47:18 17° S 22:51:25 66° WSW 22:56:47 10° NNW
Cosmos 2219 Rocket 3.5 22:47:19 10° WSW 22:52:40 42° NW 22:58:03 10° NNE
Cosmos 1151 Rocket 4.3 22:49:32 10° SW 22:53:33 39° WNW 22:57:36 10° N
Cosmos 2237 Rocket 2.4 22:48:31 10° SW 22:54:08 73° WNW 22:59:48 10° NNE
Landsat 7 4.2 22:54:28 34° ESE 22:56:09 49° ENE 23:00:46 10° N
Cosmos 2278 Rocket 3.6 22:54:35 10° NW 22:59:33 32° WSW 23:04:13 11° SSW
Helios 1B rocket 3.0 22:55:43 10° NNE 22:59:36 38° E 22:59:43 38° ESE
Cosmos 1441 Rocket 3.0 23:00:23 47° S 23:01:21 73° E 23:05:06 10° NNE
Cosmos 1707 Rocket 3.5 23:01:41 42° SSE 23:02:53 59° E 23:07:09 10° NNE
Cosmos 1023 Rocket 4.4 22:57:57 10° NNW 23:03:09 78° ENE 23:05:10 38° SSE
ATLAS 5 CENTAUR R/B 3.3 22:59:04 10° NNW 23:04:19 38° NE 23:08:00 20° E
Cosmos 2056 Rocket 3.5 22:59:19 10° SSW 23:04:45 89° ESE 23:10:11 10° NNE
Cosmos 1452 Rocket 3.9 23:04:53 37° SE 23:05:45 40° ESE 23:10:38 10° NE
Cosmos 1869 Rocket 3.8 23:03:04 10° NNW 23:07:26 66° W 23:09:21 32° S
Cosmos 2098 Rocket 3.8 23:06:14 10° SSW 23:10:37 46° WNW 23:14:10 10° N
Terra 2.2 23:12:46 40° ESE 23:13:55 50° ENE 23:18:32 10° N
Cosmos 1733 Rocket 3.3 23:14:45 10° N 23:19:05 51° ENE 23:19:33 48° E
Helios 1A 3.3 23:18:48 39° SSW 23:20:09 60° WSW 23:24:20 10° NNW
CARTOSAT-1 3.6 23:20:03 53° ESE 23:20:42 60° ENE 23:24:59 10° N
Cosmos 1850 Rocket 4.3 23:15:39 10° NNW 23:20:45 54° ENE 23:22:06 42° ESE
Cosmos 1862 4.2 23:17:15 10° NNW 23:21:09 46° W 23:22:37 31° SW
Cosmos 1934 Rocket 4.2 23:19:36 38° SE 23:21:17 48° E 23:27:03 10° NNE
Cosmos 1624 Rocket 4.4 23:16:40 10° SW 23:21:50 64° WNW 23:27:01 10° NNE
RESURS DK-1 3.7 23:18:18 10° NNW 23:21:55 27° NE 23:22:38 26° ENE
Cosmos 1140 Rocket 3.5 23:20:12 10° NNW 23:25:23 72° WSW 23:27:02 43° S
Cosmos 1437 Rocket 2.7 23:23:34 10° N 23:27:25 67° ENE 23:27:25 67° ENE
Cosmos 1741 Rocket 4.2 23:23:06 10° NNW 23:28:24 60° ENE 23:29:43 46° ESE
Cosmos 405 Rocket 3.3 23:29:41 38° SW 23:30:55 56° WNW 23:34:49 10° N
Lacrosse 5 2.3 23:26:10 10° NW 23:31:10 56° NNE 23:32:59 36° E
SL-24 R/B 4.5 23:30:05 45° SSE 23:31:47 83° E 23:36:52 10° N
SPOT 5 3.1 23:30:52 40° SSW 23:32:15 58° WSW 23:36:39 10° NNW
Cosmos 1954 Rocket 4.3 23:29:19 10° NNW 23:34:27 60° WSW 23:36:02 41° SSW
GEOS 3 Rocket 3.5 23:30:07 10° NE 23:35:32 79° SE 23:40:50 10° SW
SL-19 R/B 4.4 23:35:05 39° S 23:37:09 69° WSW 23:42:47 10° NNW
Cosmos 2242 Rocket 3.6 23:42:18 60° E 23:42:18 60° E 23:46:27 10° NNE
SL-16 R/B 2.4 23:38:32 10° SW 23:44:11 71° WNW 23:49:52 10° NNE
IGS 5A 3.4 23:46:06 73° SW 23:46:18 75° WSW 23:50:31 10° NNW
CZ-2C R/B 2.9 23:46:01 58° E 23:46:28 62° ENE 23:51:14 10° N
Cosmos 1821 Rocket 4.0 23:43:47 34° SSW 23:46:50 84° W 23:53:11 10° N
Cosmos 1943 Rocket 2.6 23:43:28 10° NNW 23:48:50 49° NE 23:50:03 42° E
USA 267 3.2 23:42:57 10° ENE 23:49:25 60° SE 23:55:52 10° SW
SL-8 R/B 3.5 23:44:43 10° WSW 23:49:26 75° S 23:49:26 75° S
ATLAS CENTAUR R/B 3.9 23:49:06 10° W 23:51:58 20° NNW 23:54:59 10° NNE
